#timestamp,LO_Frequency,Hit,StdDev 
1583410375.1,286046991.1,P
1583410395.9,286046991.3,P
1583410415.7,286046991.4,P
1583410435.5,286046991.4,Y
1583410455.4,286046999.4,P
1583410475.2,286046996.8,N
1583410495.1,286046994.9,N
1583410496.0,286046994.9,N
1583410515.8,286046994.9,N
1583410535.6,286046995.9,N
1583410555.5,286046993.4,N
1583410575.3,286046993.5,N
1583410595.2,286046991.7,Y
1583410615.9,286046997.3,P
1583410635.7,286046995.4,P
1583410655.6,286046995.1,P
1583410675.4,286046995.2,Y
1583410695.2,286047000.9,P
1583410715.1,286047001.2,N
1583410716.0,286047001.2,N
1583410735.8,286046998.5,N
1583410755.7,286046999.4,N
1583410775.5,286046999.6,N
1583410795.3,286046998.1,N
1583410815.2,286046998.9,N
1583410835.0,286046996.6,N
1583410835.9,286046996.6,N
1583410855.8,286046999.2,N
1583410875.6,286046999.5,N
1583410895.4,286046999.6,N
1583410915.3,286046997.4,N
1583410935.1,286046997.1,N
1583410955.8,286046997.5,N
1583410975.7,286046997.2,N
1583410995.5,286046996.5,N
1583411015.4,286046996.7,N
1583411035.2,286046996.9,N
1583411055.0,286046997.2,N
1583411055.9,286046997.2,N
1583411075.8,286046997.5,N
1583411095.6,286046995.6,N
1583411115.5,286046995.3,N
1583411135.3,286046995.3,N
1583411155.1,286046997.9,N
1583411175.9,286046997.6,N
1583411195.7,286046997.0,N
1583411215.5,286046997.5,N
1583411235.4,286046994.9,Y
1583411255.2,286046999.2,P
1583411275.1,286046996.5,P
1583411276.0,286046996.5,P
1583411295.8,286046997.0,N
1583411315.7,286046996.7,Y
1583411335.5,286047000.6,P
1583411355.3,286047000.4,N
1583411375.2,286047002.7,N
1583411395.0,286047000.2,N
1583411395.9,286047000.2,N
1583411415.7,286047000.4,N
1583411435.6,286047001.1,N
1583411455.4,286047001.2,N
1583411475.3,286047000.2,N
1583411495.1,286047000.5,N
1583411496.0,286047000.5,N
1583411515.8,286046998.1,N
1583411535.7,286046998.7,N
1583411555.5,286046998.7,N
1583411575.4,286046997.0,N
1583411595.2,286046997.2,N
1583411615.0,286046997.9,N
1583411615.9,286046997.9,N
1583411635.8,286046995.3,Y
1583411655.6,286046995.0,P
1583411675.5,286046996.4,N
1583411695.3,286046993.9,P
1583411715.1,286046993.7,Y
1583411735.9,286046996.9,P
1583411755.7,286046997.0,P
1583411775.6,286046999.2,N
1583411795.4,286046997.1,N
1583411815.2,286046997.4,N
1583411835.1,286046997.5,N
1583411836.0,286046997.5,N
1583411855.8,286046997.2,Y
1583411875.6,286047000.8,P
1583411895.5,286047000.8,N
1583411915.3,286047000.4,N
1583411935.2,286047001.0,N
1583411955.9,286047000.7,N
1583411975.7,286047000.7,N
1583411995.6,286047001.1,N
1583412015.4,286046999.4,N
1583412035.3,286046998.1,N
1583412055.1,286046998.5,N
1583412056.0,286046998.5,N
1583412075.8,286047000.9,N
1583412095.7,286046999.2,N
1583412115.5,286046999.1,N
1583412135.4,286046999.4,N
1583412155.2,286046998.4,N
1583412175.0,286046998.8,N
1583412175.9,286046998.8,N
1583412195.8,286046999.3,N
1583412215.6,286046996.6,Y
1583412235.4,286046996.7,P
1583412255.3,286046996.6,N
1583412275.1,286046999.1,N
1583412295.9,286046999.3,N
1583412315.7,286046998.8,N
1583412335.5,286046998.9,N
1583412355.4,286046998.1,N
1583412375.2,286046999.8,N
1583412395.1,286047001.7,N
1583412396.0,286047001.7,N
1583412415.8,286047001.7,N
1583412435.6,286047003.7,N
1583412455.5,286047003.5,N
1583412475.3,286047003.5,N
1583412495.2,286047005.1,N
1583412515.9,286047005.2,N
1583412535.7,286047003.0,N
1583412555.6,286047004.5,N
1583412575.4,286047007.0,N
1583412595.2,286047005.2,N
1583412615.1,286047005.6,N
1583412616.0,286047005.6,N
1583412635.8,286047009.2,Y
1583412655.7,286047006.3,P
1583412675.5,286047006.7,P
1583412695.3,286047006.5,N
1583412715.2,286047008.1,Y
1583412735.0,286047005.4,P
1583412735.9,286047005.4,P
1583412755.8,286047003.1,P
1583412775.6,286047006.0,Y
1583412795.4,286046998.8,P
1583412815.3,286046997.6,N
1583412835.1,286046997.4,N
1583412855.9,286046995.3,N
1583412875.7,286046993.6,N
1583412895.5,286046992.2,N
1583412915.4,286046992.5,N
1583412935.2,286046991.8,N
1583412955.1,286046993.1,N
1583412956.0,286046993.1,N
1583412975.8,286046991.4,N
1583412995.6,286046990.7,N
1583413015.5,286046991.3,N
1583413035.3,286046988.7,Y
1583413055.2,286046993.6,P
1583413075